Big Rapids, MI

2:08 PM EDT on August 28, 2016 (GMT -0400)
Roben-Hood

Weather History for KRQB - March, 2013

Change the Weather History Date:

Sunday, March 3, 2013

  Actual Average Record
Temperature  
Mean Temperature 16 °F -  
Max Temperature 28 °F 35 °F 67 °F (1974)
Min Temperature 5 °F 17 °F -20 °F (2014)
Degree Days  
Heating Degree Days 48    
Moisture  
Dew Point 10 °F    
Average Humidity 66    
Maximum Humidity 83    
Minimum Humidity 53    
Precipitation  
Precipitation 0.00 in - - ()
Sea Level Pressure  
Sea Level Pressure 30.02 in    
Wind  
Wind Speed 7 mph (NNW)    
Max Wind Speed 14 mph    
Max Gust Speed 18 mph    
Visibility 10 miles    
Events      
Averages and records for this station are not official NWS values.
T = Trace of Precipitation, MM = Missing Value Source: NWS Daily Summary

Daily Weather History Graph

Daily Weather History Graph

Search for Another Location

Airport or City:

Trip Planner

Search our weather history database for the weather conditions in past years. The results will help you decide how hot, cold, wet, or windy it might be!

Date:

Astronomy

Mar. 03, 2013 Rise Set
Actual Time 7:14 AM EST 6:33 PM EST
Civil Twilight 6:46 AM EST 7:02 PM EST
Nautical Twilight 6:12 AM EST 7:35 PM EST
Astronomical Twilight 5:39 AM EST 8:08 PM EST
Moon 12:23 AM EST (3/3) 10:16 AM EST (3/3)
Length of Visible Light 12h 16m
Length of Day
11h 18m
Waning Gibbous, 64% of the Moon is Illuminated
Mar 3
Waning Gibbous
Mar 4
Last Quarter
Mar 11
New
Mar 19
First Quarter
Mar 27
Full

Hourly Weather History & Observations

Time (EST) Temp. Windchill Dew Point Humidity Pressure Visibility Wind Dir Wind Speed Gust Speed Precip Events Conditions
12:14 AM 23.0 °F 12.4 °F 13.1 °F 66% 30.05 in 10.0 mi North 10.4 mph - N/A   Overcast
12:33 AM 22.8 °F 12.9 °F 13.1 °F 66% 30.05 in 10.0 mi North 9.2 mph - N/A   Overcast
12:54 AM 22.3 °F 12.2 °F 13.1 °F 68% 30.05 in 10.0 mi North 9.2 mph - N/A   Overcast
1:14 AM 21.9 °F 11.7 °F 12.7 °F 68% 30.05 in 10.0 mi NNW 9.2 mph - N/A   Overcast
1:34 AM 21.6 °F 11.3 °F 11.8 °F 66% 30.05 in 10.0 mi North 9.2 mph - N/A   Overcast
1:54 AM 21.4 °F 13.8 °F 12.0 °F 67% 30.05 in 10.0 mi North 5.8 mph - N/A   Overcast
2:14 AM 21.2 °F 11.7 °F 11.3 °F 66% 30.05 in 10.0 mi NNW 8.1 mph - N/A   Overcast
2:33 AM 20.8 °F 11.2 °F 11.3 °F 67% 30.05 in 10.0 mi NNW 8.1 mph - N/A   Overcast
2:54 AM 20.3 °F 9.8 °F 10.9 °F 67% 30.04 in 10.0 mi North 9.2 mph - N/A   Overcast
3:14 AM 19.8 °F 9.9 °F 10.4 °F 67% 30.04 in 10.0 mi North 8.1 mph - N/A   Overcast
3:33 AM 19.4 °F 7.9 °F 10.0 °F 67% 30.04 in 10.0 mi North 10.4 mph - N/A   Overcast
3:54 AM 19.2 °F 8.4 °F 9.5 °F 66% 30.04 in 10.0 mi NNW 9.2 mph - N/A   Overcast
4:14 AM 18.7 °F 9.5 °F 9.5 °F 67% 30.03 in 10.0 mi North 6.9 mph - N/A   Overcast
4:33 AM 18.1 °F 12.9 °F 9.5 °F 69% 30.03 in 10.0 mi NNW 3.5 mph - N/A   Overcast
4:54 AM 17.4 °F 12.1 °F 9.1 °F 70% 30.03 in 10.0 mi NW 3.5 mph - N/A   Scattered Clouds
5:13 AM 14.2 °F 8.4 °F 7.5 °F 75% 30.03 in 10.0 mi West 3.5 mph - N/A   Scattered Clouds
5:34 AM 9.5 °F - 3.9 °F 78% 30.02 in 10.0 mi Calm Calm - N/A   Clear
5:54 AM 8.2 °F - 2.8 °F 79% 30.02 in 10.0 mi Calm Calm - N/A   Clear
6:13 AM 8.4 °F - 3.9 °F 82% 30.03 in 10.0 mi Calm Calm - N/A   Clear
6:34 AM 7.0 °F 0.1 °F 2.3 °F 81% 30.02 in 10.0 mi NW 3.5 mph - N/A   Scattered Clouds
6:54 AM 6.8 °F - 2.5 °F 82% 30.03 in 10.0 mi Calm Calm - N/A   Mostly Cloudy
7:13 AM 5.7 °F - 0.9 °F 80% 30.04 in 10.0 mi Calm Calm - N/A   Mostly Cloudy
7:34 AM 6.3 °F -0.7 °F 1.8 °F 82% 30.04 in 10.0 mi West 3.5 mph - N/A   Mostly Cloudy
7:54 AM 6.4 °F - 0.7 °F 77% 30.04 in 10.0 mi Calm Calm - N/A   Mostly Cloudy
8:14 AM 9.1 °F - 3.9 °F 79% 30.04 in 10.0 mi Calm Calm - N/A   Overcast
8:34 AM 12.6 °F 6.5 °F 7.2 °F 79% 30.04 in 10.0 mi NNW 3.5 mph - N/A   Overcast
8:54 AM 14.2 °F - 7.7 °F 75% 30.04 in 10.0 mi Calm Calm - N/A   Scattered Clouds
9:14 AM 18.0 °F - 9.5 °F 70% 30.04 in 10.0 mi Calm Calm - N/A   Scattered Clouds
9:34 AM 19.8 °F 14.7 °F 10.2 °F 67% 30.04 in 10.0 mi North 3.5 mph - N/A   Scattered Clouds
9:54 AM 21.9 °F 13.4 °F 11.1 °F 63% 30.03 in 10.0 mi NW 6.9 mph - N/A   Clear
10:14 AM 23.7 °F 11.5 °F 11.7 °F 60% 30.03 in 10.0 mi NNW 13.8 mph - N/A   Scattered Clouds
10:34 AM 24.1 °F 12.5 °F 11.5 °F 59% 30.03 in 10.0 mi NNW 12.7 mph 18.4 mph N/A   Clear
10:54 AM 24.4 °F 13.0 °F 11.8 °F 59% 30.02 in 10.0 mi North 12.7 mph - N/A   Clear
11:14 AM 25.3 °F 14.1 °F 10.9 °F 54% 30.02 in 10.0 mi NNW 12.7 mph - N/A   Clear
11:34 AM 25.7 °F 18.0 °F 11.8 °F 56% 30.02 in 10.0 mi NNW 6.9 mph - N/A   Scattered Clouds
11:54 AM 26.2 °F 17.1 °F 11.8 °F 55% 30.02 in 10.0 mi NW 9.2 mph - N/A   Mostly Cloudy
12:14 PM 27.0 °F 18.0 °F 12.7 °F 55% 30.02 in 10.0 mi North 9.2 mph - N/A   Mostly Cloudy
12:34 PM 27.0 °F 18.0 °F 12.0 °F 53% 30.01 in 10.0 mi North 9.2 mph - N/A   Scattered Clouds
12:54 PM 27.9 °F 18.4 °F 13.3 °F 54% 30.01 in 10.0 mi North 10.4 mph - N/A   Mostly Cloudy
1:14 PM 27.3 °F 19.1 °F 14.0 °F 57% 30.00 in 10.0 mi North 8.1 mph - N/A   Scattered Clouds
1:34 PM 27.5 °F 18.6 °F 14.0 °F 57% 30.00 in 10.0 mi North 9.2 mph - N/A   Scattered Clouds
1:54 PM 27.9 °F 19.1 °F 14.4 °F 57% 29.99 in 10.0 mi North 9.2 mph - N/A   Scattered Clouds
2:14 PM 27.7 °F 18.2 °F 14.2 °F 57% 29.99 in 10.0 mi North 10.4 mph - N/A   Scattered Clouds
2:34 PM 28.0 °F 18.6 °F 14.5 °F 57% 29.99 in 10.0 mi North 10.4 mph - N/A   Clear
2:54 PM 27.7 °F 18.2 °F 14.7 °F 58% 29.99 in 10.0 mi North 10.4 mph - N/A   Clear
3:14 PM 28.0 °F 18.6 °F 14.2 °F 56% 29.98 in 10.0 mi North 10.4 mph - N/A   Clear
3:34 PM 28.2 °F 21.0 °F 14.5 °F 57% 29.98 in 10.0 mi North 6.9 mph - N/A   Clear
3:54 PM 28.4 °F 19.1 °F 14.0 °F 55% 29.98 in 10.0 mi NNE 10.4 mph - N/A   Clear
4:14 PM 28.4 °F 19.7 °F 13.8 °F 54% 29.98 in 10.0 mi North 9.2 mph - N/A   Clear
4:54 PM 28.4 °F 19.1 °F 14.0 °F 55% 29.99 in 10.0 mi North 10.4 mph - N/A   Clear
5:14 PM 28.2 °F 19.5 °F 13.6 °F 54% 29.99 in 10.0 mi North 9.2 mph - N/A   Clear
5:34 PM 27.5 °F 17.4 °F 13.5 °F 56% 29.99 in 10.0 mi North 11.5 mph - N/A   Clear
5:54 PM 27.3 °F 18.4 °F 12.7 °F 54% 30.00 in 10.0 mi North 9.2 mph - N/A   Clear
6:14 PM 26.2 °F 17.1 °F 12.4 °F 56% 30.00 in 10.0 mi North 9.2 mph - N/A   Clear
6:54 PM 24.3 °F 18.4 °F 11.3 °F 58% 30.01 in 10.0 mi NNW 4.6 mph - N/A   Clear
7:14 PM 23.9 °F 18.0 °F 11.3 °F 59% 30.01 in 10.0 mi NNW 4.6 mph - N/A   Clear
7:33 PM 22.8 °F 16.7 °F 11.1 °F 61% 30.02 in 10.0 mi NNW 4.6 mph - N/A   Clear
7:54 PM 22.5 °F 15.1 °F 11.3 °F 62% 30.03 in 10.0 mi NNW 5.8 mph - N/A   Clear
8:14 PM 21.2 °F 14.9 °F 10.8 °F 64% 30.03 in 10.0 mi North 4.6 mph - N/A   Clear
8:33 PM 20.3 °F 13.8 °F 10.8 °F 67% 30.04 in 10.0 mi North 4.6 mph - N/A   Clear
8:54 PM 19.4 °F 11.5 °F 10.2 °F 68% 30.04 in 10.0 mi NNW 5.8 mph - N/A   Clear
9:14 PM 19.0 °F 12.3 °F 9.9 °F 67% 30.04 in 10.0 mi North 4.6 mph - N/A   Clear
9:33 PM 19.0 °F 11.1 °F 10.2 °F 69% 30.05 in 10.0 mi NNW 5.8 mph - N/A   Clear
9:54 PM 14.7 °F - 7.5 °F 73% 30.04 in 10.0 mi Calm Calm - N/A   Clear
10:14 PM 10.9 °F - 4.8 °F 76% 30.04 in 10.0 mi Calm Calm - N/A   Clear
10:34 PM 11.7 °F - 5.7 °F 77% 30.04 in 10.0 mi Calm Calm - N/A   Clear
10:54 PM 13.1 °F - 8.1 °F 80% 30.04 in 10.0 mi Calm Calm - N/A   Clear
11:14 PM 11.3 °F - 5.5 °F 78% 30.04 in 10.0 mi Calm Calm - N/A   Clear
11:34 PM 7.7 °F - 2.3 °F 79% 30.04 in 10.0 mi Calm Calm - N/A   Clear
11:54 PM 8.4 °F - 4.1 °F 83% 30.05 in 10.0 mi Calm Calm - N/A   Clear